Location: Dodge City Community College Clyde Tombaugh Astronomy Center
(37.7756°N, 100.0412°W)
Time: 13:56:54
(UTC+00:00)

Cosmos 1656 - Pass Details

Date: 08 December 2021
Orbit: 797 x 850 km, 71.1° (Epoch: 19 January)

Event Time Altitude Azimuth Distance (km) Brightness Sun altitude
Rises 12:55:13 0° 201° (SSW) 3,287 6.8 -9.4°
Reaches altitude 10° 12:57:37 10° 201° (SSW) 2,359 6.1 -9.0°
Maximum altitude 13:03:01 88° 293° (WNW) 803 3.6 -8.0°
Drops below altitude 10° 13:08:27 10° 22° (NNE) 2,382 6.0 -7.0°
Sets 13:10:53 0° 22° (NNE) 3,321 6.8 -6.6°
